Location: Dehesa de la Cepeda
(40.6574°N, 4.3013°W)
Time: 03:00:33
(UTC+00:00)

Courier 1B - Pass Details

Date: 02 August 2021
Orbit: 963 x 1209 km, 28.3° (Epoch: 17 September)

Event Time Altitude Azimuth Distance (km) Brightness Sun altitude
Rises 21:29:57 0° 256° (WSW) 4,101 11.2 -19.2°
Reaches altitude 10° 21:33:13 10° 246° (WSW) 3,122 10.4 -19.7°
Maximum altitude 21:39:44 30° 189° (S) 1,950 8.7 -20.5°
Enters shadow 21:41:09 28° 170° (S) 2,007 8.7 -20.7°
Drops below altitude 10° 21:46:02 10° 131° (SE) 3,003 - -21.3°
Sets 21:49:07 0° 121° (ESE) 3,922 - -21.7°
